| time (UTC) | temp C | wind direction | speed KPH | gust KPH | rain 1hr cm | rain 24hr cm | rain mn cm | humidity % | barometer mb |
| 20260506102423 | 21 | 228 | 1.6 | 3.2 | 0.00 | 0.00 | 0.00 | 99 | 1014.0 |
| 20260506101504 | 21 | 230 | 0.0 | 3.2 | 0.00 | 0.00 | 0.00 | 98 | 1013.8 |
| 20260506100438 | 21 | 241 | 3.2 | 6.4 | 0.00 | 0.00 | 0.00 | 98 | 1013.7 |
| 20260506095426 | 21 | 183 | 0.0 | 8.0 | 0.00 | 0.00 | 0.00 | 98 | 1013.4 |
| 20260506094418 | 21 | 110 | 1.6 | 6.4 | 0.00 | 0.00 | 0.00 | 98 | 1013.2 |
| 20260506093502 | 21 | 140 | 1.6 | 11.3 | 0.00 | 0.00 | 0.00 | 98 | 1013.2 |
| 20260506092431 | 21 | 170 | 1.6 | 4.8 | 0.00 | 0.00 | 0.00 | 98 | 1013.4 |
| 20260506091423 | 21 | 160 | 0.0 | 3.2 | 0.00 | 0.00 | 0.00 | 98 | 1013.3 |
| 20260506090417 | 20 | 171 | 0.0 | 3.2 | 0.00 | 0.00 | 0.00 | 98 | 1013.4 |
| 20260506085432 | 20 | 163 | 1.6 | 9.7 | 0.00 | 0.00 | 0.00 | 98 | 1013.5 |
| 20260506084423 | 21 | 105 | 0.0 | 6.4 | 0.00 | 0.00 | 0.00 | 98 | 1013.6 |
| 20260506083443 | 21 | 192 | 0.0 | 8.0 | 0.00 | 0.00 | 0.00 | 98 | 1013.7 |
| 20260506082435 | 20 | 198 | 3.2 | 8.0 | 0.00 | 0.00 | 0.00 | 98 | 1013.7 |
| 20260506081428 | 20 | 193 | 1.6 | 8.0 | 0.00 | 0.00 | 0.00 | 98 | 1013.8 |
| 20260506080422 | 20 | 146 | 1.6 | 6.4 | 0.00 | 0.00 | 0.00 | 98 | 1013.7 |
| 20260506073441 | 20 | 189 | 0.0 | 3.2 | 0.00 | 0.00 | 0.00 | 98 | 1014.0 |
| 20260506072436 | 20 | 191 | 0.0 | 3.2 | 0.00 | 0.00 | 0.00 | 98 | 1014.0 |
| 20260506071428 | 19 | 190 | 0.0 | 6.4 | 0.00 | 0.00 | 0.00 | 98 | 1014.2 |
| 20260506070418 | 19 | 126 | 0.0 | 0.0 | 0.00 | 0.00 | 0.00 | 97 | 1014.2 |
| 20260506062438 | 20 | 125 | 1.6 | 6.4 | 0.00 | 0.00 | 0.00 | 97 | 1014.6 |
| 20260506061432 | 20 | 124 | 0.0 | 3.2 | 0.00 | 0.00 | 0.00 | 97 | 1014.6 |
| 20260506060424 | 20 | 150 | 1.6 | 3.2 | 0.00 | 0.00 | 0.00 | 97 | 1014.7 |
| 20260506050439 | 20 | 155 | 1.6 | 3.2 | 0.00 | 0.00 | 0.00 | 95 | 1015.2 |
| 20260506044428 | 20 | 156 | 0.0 | 6.4 | 0.00 | 0.00 | 0.00 | 95 | 1015.2 |
| 20260506043421 | 20 | 134 | 0.0 | 3.2 | 0.00 | 0.00 | 0.00 | 94 | 1015.2 |
| 20260506042433 | 20 | 134 | 0.0 | 8.0 | 0.00 | 0.00 | 0.00 | 94 | 1015.3 |
| 20260506041427 | 20 | 174 | 0.0 | 3.2 | 0.00 | 0.00 | 0.00 | 94 | 1015.3 |
| 20260506040450 | 20 | 182 | 0.0 | 1.6 | 0.00 | 0.00 | 0.00 | 93 | 1015.4 |
| 20260506035423 | 20 | 182 | 0.0 | 4.8 | 0.00 | 0.00 | 0.00 | 93 | 1015.4 |
| 20260506034435 | 20 | 127 | 0.0 | 3.2 | 0.00 | 0.00 | 0.00 | 93 | 1015.4 |
| 20260506033447 | 20 | 126 | 1.6 | 6.4 | 0.00 | 0.00 | 0.00 | 93 | 1015.7 |
| 20260506032420 | 20 | 117 | 1.6 | 3.2 | 0.00 | 0.00 | 0.00 | 92 | 1015.8 |
| 20260506031444 | 20 | 116 | 0.0 | 3.2 | 0.00 | 0.00 | 0.00 | 92 | 1016.1 |
| 20260506030437 | 20 | 126 | 0.0 | 3.2 | 0.00 | 0.00 | 0.00 | 91 | 1015.8 |
| 20260506025420 | 20 | 126 | 0.0 | 6.4 | 0.00 | 0.00 | 0.00 | 91 | 1015.8 |
| 20260506024503 | 20 | 138 | 0.0 | 3.2 | 0.00 | 0.00 | 0.00 | 90 | 1015.8 |
| 20260506023419 | 21 | 138 | 0.0 | 3.2 | 0.00 | 0.00 | 0.00 | 90 | 1015.5 |
| 20260506022431 | 21 | 138 | 1.6 | 6.4 | 0.00 | 0.00 | 0.00 | 89 | 1015.4 |
| 20260506021445 | 21 | 138 | 3.2 | 9.7 | 0.00 | 0.00 | 0.00 | 89 | 1015.1 |
| 20260506020419 | 21 | 122 | 0.0 | 3.2 | 0.00 | 0.00 | 0.00 | 88 | 1015.1 |
| 20260506015443 | 21 | 121 | 0.0 | 3.2 | 0.00 | 0.00 | 0.00 | 88 | 1015.2 |
| 20260506014436 | 21 | 121 | 0.0 | 3.2 | 0.00 | 0.00 | 0.00 | 87 | 1015.2 |
| 20260506013431 | 21 | 121 | 1.6 | 3.2 | 0.00 | 0.00 | 0.00 | 87 | 1015.2 |
| 20260506012426 | 21 | 121 | 1.6 | 4.8 | 0.00 | 0.00 | 0.00 | 86 | 1015.4 |
| 20260506011421 | 21 | 120 | 1.6 | 6.4 | 0.00 | 0.00 | 0.00 | 86 | 1015.3 |
| 20260506010415 | 22 | 182 | 1.6 | 3.2 | 0.00 | 0.00 | 0.00 | 85 | 1015.3 |
| 20260506005431 | 22 | 180 | 0.0 | 8.0 | 0.00 | 0.00 | 0.00 | 84 | 1015.0 |
| 20260506004423 | 22 | 170 | 1.6 | 6.4 | 0.00 | 0.00 | 0.00 | 84 | 1015.0 |
| 20260506003416 | 22 | 175 | 3.2 | 9.7 | 0.00 | 0.00 | 0.00 | 83 | 1015.0 |
| 20260506002440 | 22 | 158 | 1.6 | 9.7 | 0.00 | 0.00 | 0.00 | 82 | 1015.0 |
| 20260506001434 | 22 | 155 | 3.2 | 8.0 | 0.00 | 0.00 | 0.00 | 82 | 1014.9 |
| 20260506000423 | 22 | 197 | 3.2 | 9.7 | 0.00 | 0.00 | 0.00 | 81 | 1015.0 |
| 20260505235416 | 23 | 158 | 4.8 | 12.9 | 0.00 | 0.00 | 0.00 | 81 | 1014.9 |
| 20260505234430 | 23 | 177 | 6.4 | 11.3 | 0.00 | 0.00 | 0.00 | 80 | 1014.8 |
| 20260505233423 | 23 | 171 | 6.4 | 12.9 | 0.00 | 0.00 | 0.00 | 79 | 1015.0 |
| 20260505232418 | 23 | 143 | 4.8 | 12.9 | 0.00 | 0.00 | 0.00 | 79 | 1014.9 |
| 20260505231441 | 23 | 188 | 8.0 | 17.7 | 0.00 | 0.00 | 0.00 | 78 | 1014.9 |
| 20260505230454 | 23 | 121 | 6.4 | 14.5 | 0.00 | 0.00 | 0.00 | 77 | 1014.7 |
| 20260505225425 | 24 | 171 | 3.2 | 16.1 | 0.00 | 0.00 | 0.00 | 75 | 1015.0 |
| 20260505224438 | 24 | 171 | 6.4 | 16.1 | 0.00 | 0.00 | 0.00 | 74 | 1014.8 |
| 20260505223438 | 25 | 244 | 9.7 | 19.3 | 0.00 | 0.00 | 0.00 | 73 | 1014.7 |
| 20260505222434 | 25 | 144 | 6.4 | 16.1 | 0.00 | 0.00 | 0.00 | 73 | 1014.8 |
| 20260505221427 | 24 | 164 | 8.0 | 17.7 | 0.00 | 0.00 | 0.00 | 73 | 1014.8 |
| 20260505220442 | 25 | 136 | 9.7 | 19.3 | 0.00 | 0.00 | 0.00 | 71 | 1014.6 |
| 20260505215430 | 25 | 215 | 8.0 | 19.3 | 0.00 | 0.00 | 0.00 | 71 | 1014.4 |
| 20260505214422 | 25 | 140 | 9.7 | 20.9 | 0.00 | 0.00 | 0.00 | 70 | 1014.3 |
| 20260505213425 | 25 | 225 | 8.0 | 17.7 | 0.00 | 0.00 | 0.00 | 70 | 1014.5 |
| 20260505212417 | 25 | 40 | 8.0 | 19.3 | 0.00 | 0.00 | 0.00 | 71 | 1014.4 |
| 20260505211448 | 25 | 171 | 9.7 | 22.5 | 0.00 | 0.00 | 0.00 | 69 | 1014.4 |
| 20260505210419 | 26 | 218 | 8.0 | 20.9 | 0.00 | 0.00 | 0.00 | 70 | 1014.6 |
| 20260505205415 | 26 | 232 | 9.7 | 22.5 | 0.00 | 0.00 | 0.00 | 68 | 1014.6 |
| 20260505204434 | 26 | 153 | 11.3 | 16.1 | 0.00 | 0.00 | 0.00 | 69 | 1014.7 |
| 20260505203449 | 26 | 208 | 9.7 | 17.7 | 0.00 | 0.00 | 0.00 | 69 | 1014.9 |
| 20260505202422 | 26 | 145 | 4.8 | 19.3 | 0.00 | 0.00 | 0.00 | 68 | 1015.0 |
| 20260505201442 | 26 | 161 | 8.0 | 16.1 | 0.00 | 0.00 | 0.00 | 68 | 1015.1 |
| 20260505200437 | 26 | 236 | 9.7 | 17.7 | 0.00 | 0.00 | 0.00 | 67 | 1015.2 |
| 20260505195429 | 26 | 259 | 9.7 | 20.9 | 0.00 | 0.00 | 0.00 | 67 | 1015.5 |
| 20260505194445 | 25 | 203 | 9.7 | 24.1 | 0.00 | 0.00 | 0.00 | 68 | 1015.6 |
| 20260505193418 | 26 | 199 | 11.3 | 22.5 | 0.00 | 0.00 | 0.00 | 68 | 1015.6 |
| 20260505192432 | 26 | 204 | 8.0 | 17.7 | 0.00 | 0.00 | 0.00 | 68 | 1015.8 |
| 20260505191427 | 26 | 161 | 9.7 | 22.5 | 0.00 | 0.00 | 0.00 | 67 | 1015.9 |
| 20260505190430 | 26 | 231 | 6.4 | 22.5 | 0.00 | 0.00 | 0.00 | 66 | 1015.8 |
| 20260505185420 | 26 | 148 | 8.0 | 19.3 | 0.00 | 0.00 | 0.00 | 65 | 1015.8 |
| 20260505184432 | 26 | 209 | 9.7 | 19.3 | 0.00 | 0.00 | 0.00 | 65 | 1015.9 |
| 20260505183423 | 26 | 68 | 8.0 | 20.9 | 0.00 | 0.00 | 0.00 | 67 | 1015.9 |
| 20260505182432 | 25 | 197 | 8.0 | 20.9 | 0.00 | 0.00 | 0.00 | 66 | 1016.1 |
| 20260505181426 | 25 | 229 | 4.8 | 22.5 | 0.00 | 0.00 | 0.00 | 66 | 1016.2 |
| 20260505180421 | 25 | 150 | 9.7 | 19.3 | 0.00 | 0.00 | 0.00 | 69 | 1016.2 |
| 20260505175442 | 25 | 196 | 8.0 | 16.1 | 0.00 | 0.00 | 0.00 | 68 | 1016.1 |
| 20260505174436 | 25 | 187 | 11.3 | 29.0 | 0.00 | 0.00 | 0.00 | 68 | 1016.1 |
| 20260505173429 | 25 | 193 | 6.4 | 20.9 | 0.00 | 0.00 | 0.00 | 71 | 1016.4 |
| 20260505172443 | 25 | 186 | 8.0 | 19.3 | 0.00 | 0.00 | 0.00 | 70 | 1016.4 |
| 20260505171443 | 25 | 155 | 8.0 | 17.7 | 0.00 | 0.00 | 0.00 | 70 | 1016.5 |
| 20260505170432 | 25 | 283 | 6.4 | 16.1 | 0.00 | 0.00 | 0.00 | 70 | 1016.4 |
| 20260505165423 | 25 | 275 | 6.4 | 14.5 | 0.00 | 0.00 | 0.00 | 69 | 1016.5 |
| 20260505164415 | 25 | 202 | 9.7 | 22.5 | 0.00 | 0.00 | 0.00 | 69 | 1016.4 |
| 20260505163443 | 25 | 106 | 9.7 | 17.7 | 0.00 | 0.00 | 0.00 | 70 | 1016.4 |
| 20260505162443 | 24 | 209 | 8.0 | 24.1 | 0.00 | 0.00 | 0.00 | 71 | 1016.4 |
| 20260505161417 | 25 | 113 | 8.0 | 19.3 | 0.00 | 0.00 | 0.00 | 71 | 1016.3 |
| 20260505160427 | 25 | 197 | 9.7 | 20.9 | 0.00 | 0.00 | 0.00 | 69 | 1016.2 |
| 20260505152440 | 24 | 187 | 6.4 | 16.1 | 0.00 | 0.00 | 0.00 | 70 | 1016.4 |
| 20260505151440 | 23 | 188 | 8.0 | 24.1 | 0.00 | 0.00 | 0.00 | 71 | 1016.2 |
| 20260505150429 | 23 | 233 | 11.3 | 24.1 | 0.00 | 0.00 | 0.00 | 70 | 1016.2 |
| 20260505140427 | 22 | 183 | 4.8 | 11.3 | 0.00 | 0.00 | 0.00 | 77 | 1016.3 |
| 20260505124432 | 17 | 15 | 1.6 | 3.2 | 0.00 | 0.00 | 0.00 | 95 | 1015.9 |
| 20260505123422 | 16 | 15 | 0.0 | 3.2 | 0.00 | 0.00 | 0.00 | 99 | 1015.9 |
| 20260505122440 | 15 | 204 | 0.0 | 1.6 | 0.00 | 0.00 | 0.00 | 100 | 1015.8 |
| 20260505121429 | 13 | 204 | 0.0 | 0.0 | 0.00 | 0.00 | 0.00 | 100 | 1015.9 |
| 20260505120420 | 13 | 204 | 0.0 | 0.0 | 0.00 | 0.00 | 0.00 | 100 | 1015.7 |
| 20260505115415 | 12 | 204 | 0.0 | 0.0 | 0.00 | 0.00 | 0.00 | 100 | 1015.6 |
| 20260505114426 | 12 | 204 | 0.0 | 1.6 | 0.00 | 0.00 | 0.00 | 99 | 1015.5 |
| 20260505113450 | 12 | 204 | 0.0 | 0.0 | 0.00 | 0.00 | 0.00 | 99 | 1015.5 |
| 20260505112422 | 12 | 204 | 0.0 | 1.6 | 0.00 | 0.00 | 0.00 | 99 | 1015.4 |
| 20260505111416 | 12 | 204 | 0.0 | 0.0 | 0.00 | 0.00 | 0.00 | 99 | 1015.3 |
| 20260505110429 | 12 | 204 | 0.0 | 0.0 | 0.00 | 0.00 | 0.00 | 99 | 1015.3 |